Hovedside
METAR-TAF:

METAR-TAF

Lufthavner :

Ørsta/Volda lufthamn. Hovden

Ørsta-Volda, Norge

breddegrad: 62-11N, lengdegrad: 006-04E, høyde over havet: 7 m

Gjeldene værobservasjon

Denne rapporten ble laget for 34 minutter siden, klokken 10:20 UTC
Vind 1 kt fra skiftende retning
Temperatur 9°C
Luftfuktighet 87%
Trykk 985 hPa
Sikt 10 km eller mer
Få skyer i en høyde av 1000 ft
Spredte skyer i en høyde av 3500 ft
Brutte skyer i en høyde av 4500 ft
lett regn

METAR: ENOV 211020Z VRB01KT 9999 -RA FEW010 SCT035 BKN045 09/07 Q0985 RMK WIND 2175FT 07008KT

Tid: 12:54 (10:54 UTC)


TAF: fraværende

Værobservasjoner og værvarsel for over 4000 flyplasser (METAR- og TAF-rapporter).

Tilgjengelige stasjoner er representert av de røde og gule prikkene på kartet.

Hold musepekeren over prikken for å se navnet på stasjonen.

Klikk så for å se værobservasjoner og -varsler.

For å forandre kartet kan du klikke på den grønne knappen med svart kryss for å zoome inn, på den grønne knappen med strek for å zoome ut, eller på de grønne pilene for å se tilstøtende kart.


METAR-TAF: